Home   Weather   Hilversum   Past weeks

Flag for Netherlands Past Weather in Hilversum, Netherlands — Yesterday and Last 2 Weeks

Now
63 °F

Overcast.


Feels Like: 63 °F
Forecast: 54 / 63 °F
Wind: 9 mph from Southwest

Location: De Bilt

Current Time: Sep 29, 2016 at 3:47:50 PM

Latest Report: Sep 29, 2016 at 3:00 PM


Visibility: 9 mi

Pressure: 29.90 "Hg

Humidity: 83%

Dew Point: 58 °F

Location of HilversumLocation

Past Weather in Hilversum — Graph

°F

Hilversum Temperature Yesterday

Maximum temperature yesterday: 70 °F (at 3:00 PM)
Minimum temperature yesterday: 62 °F (at 3:00 AM)
Average temperature yesterday: 66 °F

High & Low Weather Summary for the Past Weeks

 TemperatureHumidityPressure
High88 °F (Sep 14, 4:00 PM)100% (Sep 19, 5:00 AM)30.30 "Hg (Sep 19, 5:00 AM)
Low43 °F (Sep 27, 7:00 AM)33% (Sep 14, 4:00 PM)29.79 "Hg (Sep 15, 6:00 PM)
Average61 °F78%30.09 "Hg
* Reported Sep 14 2:00 PM — Sep 29 2:00 PM, Hilversum, Weather by CustomWeather, © 2016

Note: Actual official high and low records may vary slightly from our data, if they occured in-between our weather recording intervals... More about our weather records

Advertising

Hilversum Weather History for the Previous 24 Hours

Scroll right to see more
 ConditionsComfort  
Time TempWeatherWind HumidityBarometerVisibility
2:00 PM
Thu, Sep 29
63 °FOvercast.8 mph83%29.93 "Hg11 mi
1:00 PM63 °FLow clouds.7 mph84%29.94 "Hg8 mi
9:00 AM60 °FOvercast.7 mph86%29.99 "Hg9 mi
8:00 AM59 °FPartly sunny.6 mph86%30.00 "Hg10 mi
7:00 AM61 °FOvercast.6 mph80%30.01 "Hg10 mi
6:00 AM61 °FOvercast.6 mph75%30.03 "Hg12 mi
5:00 AM61 °FOvercast.7 mph75%30.05 "Hg14 mi
4:00 AM61 °FOvercast.5 mph74%30.08 "Hg11 mi
3:00 AM62 °FOvercast.5 mph75%30.11 "Hg11 mi
2:00 AM63 °FOvercast.6 mph71%30.12 "Hg11 mi
1:00 AM63 °FOvercast.6 mph68%30.14 "Hg12 mi
12:00 AM64 °FOvercast.6 mph70%30.15 "Hg11 mi
11:00 PM
Wed, Sep 28
65 °FOvercast.6 mph71%30.15 "Hg11 mi
10:00 PM65 °FOvercast.6 mph68%30.16 "Hg11 mi
9:00 PM67 °FOvercast.6 mph69%30.17 "Hg10 mi
8:00 PM66 °FOvercast.3 mph71%30.18 "Hg9 mi
7:00 PM68 °FOvercast.5 mph67%30.19 "Hg11 mi
6:00 PM69 °FOvercast.5 mph60%30.19 "Hg13 mi
5:00 PM68 °FOvercast.6 mph58%30.20 "Hg12 mi
4:00 PM69 °FSunny.8 mph58%30.20 "Hg10 mi
3:00 PM70 °FScattered clouds.7 mph58%30.21 "Hg9 mi
Weather by CustomWeather, © 2016

See weather overviewHow to use our weather pages